Waarnemingen

Advertentie
Mijn weer
Kleine Brogel, België (6479): temperatuur & dauwpunt: 20.11.2020 13:00:00 - 26.11.2020 13:00:00 (CET)Kleine Brogel, België (6479): windsnelheid & windstoten: 20.11.2020 13:00:00 - 26.11.2020 13:00:00 (CET)Kleine Brogel, België (6479): windrichting: 20.11.2020 13:00:00 - 26.11.2020 13:00:00 (CET)Kleine Brogel, België (6479): luchtdruk: 20.11.2020 13:00:00 - 26.11.2020 13:00:00 (CET)Kleine Brogel, België (6479): zicht: 20.11.2020 13:00:00 - 26.11.2020 13:00:00 (CET)
Datum & Tijd tt [°C] td [°C] ff [km/u] ff [kn] fx [km/u] fx [kn] dd ppp [hPa] vv [km]
26.11.2020 13:00:00 10,3 6,3 4 2 - - N 1020,5 20
26.11.2020 12:00:00 9,6 5,7 4 2 7 4 N 1021,0 20
26.11.2020 11:00:00 9,1 6,0 4 2 7 4 N 1021,2 20
26.11.2020 10:00:00 8,6 5,5 4 2 - - N 1021,2 15
26.11.2020 09:00:00 7,9 5,6 7 4 11 6 ZZW 1021,0 15
26.11.2020 08:00:00 7,6 5,2 4 2 11 6 N 1020,7 15
26.11.2020 07:00:00 7,8 5,2 7 4 - - N 1020,7 15
26.11.2020 06:00:00 7,8 5,3 7 4 11 6 ZZW 1020,5 19
26.11.2020 05:00:00 7,5 5,2 7 4 11 6 ZZW 1020,2 19
26.11.2020 04:00:00 7,5 5,1 7 4 - - ZZW 1020,2 19
26.11.2020 03:00:00 7,1 5,1 7 4 11 6 ZZW 1020,1 19
26.11.2020 02:00:00 6,6 4,8 7 4 14 8 ZW 1020,0 17
26.11.2020 01:00:00 6,7 4,9 7 4 - - ZZW 1019,7 17
26.11.2020 00:00:00 6,9 5,0 7 4 11 6 ZZW 1019,6 18
25.11.2020 23:00:00 7,2 5,2 7 4 11 6 ZZW 1019,1 17
25.11.2020 22:00:00 7,3 5,1 7 4 - - ZZW 1018,6 20
25.11.2020 21:00:00 7,9 5,3 11 6 18 10 ZZW 1018,2 20
25.11.2020 20:00:00 8,4 5,5 11 6 18 10 ZZW 1017,8 20
25.11.2020 19:00:00 8,8 5,4 11 6 - - ZZW 1017,3 10
25.11.2020 18:00:00 8,8 5,4 7 4 14 8 ZZW 1017,2 20
25.11.2020 17:00:00 8,5 5,1 4 2 14 8 N 1016,7 18
25.11.2020 16:00:00 9,3 5,3 7 4 - - ZZW 1016,5 18
25.11.2020 15:00:00 10,6 5,6 7 4 18 10 Z 1016,2 18
25.11.2020 14:00:00 9,8 5,3 7 4 25 14 ZZW 1016,3 18
25.11.2020 13:00:00 10,3 5,1 14 8 - - ZZW 1016,5 18
25.11.2020 12:00:00 9,4 5,0 11 6 25 14 ZZW 1016,7 13
25.11.2020 11:00:00 8,0 4,3 11 6 22 12 ZZW 1016,7 15
25.11.2020 10:00:00 5,5 3,4 7 4 - - Z 1016,7 15
25.11.2020 09:00:00 2,1 1,5 4 2 7 4 N 1016,6 10
25.11.2020 08:00:00 1,6 1,3 4 2 7 4 N 1016,2 10
25.11.2020 07:00:00 1,7 1,1 4 2 - - - 1015,8 10
25.11.2020 06:00:00 2,0 1,4 4 2 7 4 N 1015,8 14
25.11.2020 05:00:00 2,2 1,7 5 3 11 6 OZO 1016,0 9
25.11.2020 04:00:00 2,0 1,5 4 2 - - N 1016,5 14
25.11.2020 03:00:00 2,6 1,9 4 2 7 4 N 1016,7 13
25.11.2020 02:00:00 3,2 1,9 4 2 11 6 N 1017,0 17
25.11.2020 01:00:00 3,5 2,3 4 2 - - N 1017,5 18
25.11.2020 00:00:00 4,0 2,7 4 2 7 4 N 1018,2 20
24.11.2020 23:00:00 4,3 3,0 4 2 7 4 - 1018,5 7
24.11.2020 22:00:00 4,8 3,4 4 2 - - N 1018,7 20
24.11.2020 21:00:00 6,0 3,6 4 2 11 6 N 1019,1 20
24.11.2020 20:00:00 6,2 3,8 4 2 14 8 N 1019,2 20
24.11.2020 19:00:00 6,9 4,2 7 4 - - ZZO 1019,6 20
24.11.2020 18:00:00 5,8 4,2 4 2 7 4 N 1019,8 20
24.11.2020 17:00:00 7,4 4,6 4 2 7 4 N 1020,2 20
24.11.2020 16:00:00 9,4 5,5 4 2 - - N 1020,5 20
24.11.2020 15:00:00 11,0 5,7 7 4 14 8 N 1021,1 20
24.11.2020 14:00:00 11,4 5,7 7 4 22 12 Z 1021,7 20
24.11.2020 13:00:00 11,5 5,9 14 8 - - ZW 1022,3 20
24.11.2020 12:00:00 10,4 6,1 11 6 25 14 Z 1023,0 20
24.11.2020 11:00:00 9,6 6,1 11 6 18 10 ZZW 1023,7 20
24.11.2020 10:00:00 8,6 6,1 7 4 - - ZZW 1024,0 20
24.11.2020 09:00:00 7,5 6,0 7 4 18 10 Z 1024,4 20
24.11.2020 08:00:00 7,8 6,6 7 4 18 10 Z 1024,4 10
24.11.2020 07:00:00 7,0 6,0 7 4 - - Z 1024,7 19
24.11.2020 06:00:00 7,5 6,6 11 6 18 10 ZZW 1025,0 19
24.11.2020 05:00:00 6,7 6,2 7 4 11 6 ZZW 1025,5 14
24.11.2020 04:00:00 7,0 6,1 8 4 - - Z 1025,7 10
24.11.2020 03:00:00 7,3 6,5 11 6 18 10 ZZW 1026,2 13
24.11.2020 02:00:00 5,5 5,1 4 2 7 4 N 1026,5 12
24.11.2020 01:00:00 7,5 6,4 4 2 - - N 1026,9 19
24.11.2020 00:00:00 7,4 6,4 7 4 14 8 ZZW 1027,0 20
23.11.2020 23:00:00 8,0 6,8 7 4 14 8 Z 1027,5 19
23.11.2020 22:00:00 7,0 6,1 7 4 - - Z 1027,9 16
23.11.2020 21:00:00 4,6 3,8 4 2 7 4 N 1028,2 10
23.11.2020 20:00:00 3,7 3,7 7 4 11 6 N 1028,2 7
23.11.2020 19:00:00 3,5 3,4 2 1 - - - 1028,5 7
23.11.2020 18:00:00 3,5 2,8 4 2 7 4 N 1028,7 20
23.11.2020 17:00:00 5,8 3,8 4 2 4 2 N 1028,5 20
23.11.2020 16:00:00 8,0 3,9 4 2 - - N 1028,4 20
23.11.2020 15:00:00 9,2 2,9 7 4 14 8 Z 1028,5 20
23.11.2020 14:00:00 10,4 4,2 7 4 11 6 ZW 1029,2 20
23.11.2020 13:00:00 9,1 5,2 7 4 - - ZW 1029,5 20
23.11.2020 12:00:00 8,4 6,2 7 4 11 6 WZW 1029,7 10
23.11.2020 11:00:00 8,0 6,3 7 4 7 4 ZW 1029,5 7
23.11.2020 10:00:00 6,8 6,4 2 1 - - - 1029,2 4,0
23.11.2020 09:00:00 3,3 3,2 4 2 4 2 N 1029,0 0,3
23.11.2020 08:00:00 4,9 4,8 4 2 7 4 N 1028,2 -
23.11.2020 07:00:00 5,8 5,6 4 2 - - N 1027,9 3,5
23.11.2020 06:00:00 7,5 7,1 4 2 11 6 N 1027,4 4,2
23.11.2020 05:00:00 8,2 7,8 7 4 11 6 WZW 1027,0 2,9
23.11.2020 04:00:00 8,2 7,8 7 4 - - WZW 1026,7 2,7
23.11.2020 03:00:00 8,1 7,8 7 4 11 6 WZW 1026,9 2,9
23.11.2020 02:00:00 8,1 7,8 7 4 11 6 ZW 1026,7 3,3
23.11.2020 01:00:00 8,3 7,9 7 4 - - WZW 1026,9 2,8
23.11.2020 00:00:00 8,5 7,9 7 4 14 8 WZW 1026,5 3,8
22.11.2020 23:00:00 8,6 8,0 7 4 18 10 WZW 1026,5 5
22.11.2020 22:00:00 9,0 8,4 11 6 - - ZW 1026,5 8
22.11.2020 21:00:00 9,1 8,5 11 6 14 8 WZW 1026,5 5
22.11.2020 20:00:00 9,1 8,6 7 4 14 8 WZW 1026,4 5
22.11.2020 19:00:00 9,1 8,7 7 4 - - WZW 1026,2 5
22.11.2020 18:00:00 9,1 8,8 11 6 18 10 ZW 1025,7 5
22.11.2020 17:00:00 9,1 8,9 11 6 14 8 ZW 1025,7 4,0
22.11.2020 16:00:00 9,1 8,9 11 6 - - WZW 1025,7 3,1
22.11.2020 15:00:00 9,1 8,8 11 6 18 10 WZW 1025,7 3,2
22.11.2020 14:00:00 9,1 8,8 11 6 14 8 ZW 1026,0 2,0
22.11.2020 13:00:00 9,2 8,5 14 8 - - WZW 1026,4 2,3
22.11.2020 12:00:00 9,3 7,9 18 10 29 16 ZW 1026,5 17
22.11.2020 11:00:00 9,1 7,7 18 10 25 14 ZW 1026,7 13
22.11.2020 10:00:00 8,8 7,6 18 10 - - ZW 1026,5 4,8
22.11.2020 09:00:00 8,3 7,3 18 10 29 16 ZW 1026,2 9
22.11.2020 08:00:00 8,5 7,1 22 12 29 16 ZW 1026,0 11
22.11.2020 07:00:00 8,3 7,0 22 12 - - ZW 1026,0 15
22.11.2020 06:00:00 8,1 7,1 18 10 36 19 ZW 1026,2 18
22.11.2020 05:00:00 8,3 6,9 22 12 40 21 ZW 1026,0 19
22.11.2020 04:00:00 8,3 6,7 22 12 - - ZW 1026,0 20
22.11.2020 03:00:00 8,0 6,6 18 10 29 16 ZW 1026,2 20
22.11.2020 02:00:00 8,1 6,5 18 10 36 19 ZZW 1026,4 15
22.11.2020 01:00:00 8,3 6,4 22 12 - - ZW 1026,5 6
22.11.2020 00:00:00 8,8 6,0 22 12 32 18 ZW 1027,0 19
21.11.2020 23:00:00 8,8 6,0 18 10 32 18 ZZW 1027,0 10
21.11.2020 22:00:00 9,0 5,6 16 9 - - ZZW 1027,7 10
21.11.2020 21:00:00 8,9 5,4 22 12 32 18 ZW 1027,9 20
21.11.2020 20:00:00 8,8 5,4 22 12 36 19 ZW 1028,0 20
21.11.2020 19:00:00 8,8 5,4 18 10 - - ZW 1028,2 20
21.11.2020 18:00:00 9,0 5,0 21 11 - - ZW - 10
21.11.2020 17:00:00 9,5 5,2 18 10 36 19 ZZW 1028,2 20
21.11.2020 16:00:00 9,6 5,1 22 12 - - ZW 1028,0 20
21.11.2020 15:00:00 9,8 5,0 22 12 32 18 ZW 1028,0 20
21.11.2020 14:00:00 9,6 4,7 22 12 36 19 ZW 1028,5 20
21.11.2020 13:00:00 9,5 4,1 25 14 - - ZW 1029,2 20
21.11.2020 12:00:00 8,6 3,6 22 12 36 19 ZZW 1029,5 16
21.11.2020 11:00:00 7,2 2,9 18 10 36 19 ZZW 1030,2 20
21.11.2020 10:00:00 6,6 2,9 18 10 - - ZZW 1030,4 20
21.11.2020 09:00:00 6,4 2,8 18 10 32 18 ZZW 1030,9 20
21.11.2020 08:00:00 6,0 2,6 18 10 32 18 ZW 1031,0 10
21.11.2020 07:00:00 5,9 2,2 18 10 - - ZZW 1030,9 20
21.11.2020 06:00:00 5,3 1,8 14 8 29 16 ZZW 1031,5 20
21.11.2020 05:00:00 4,4 1,5 14 8 25 14 ZZW 1031,5 20
21.11.2020 04:00:00 3,7 0,9 14 8 - - ZZW 1031,7 20
21.11.2020 03:00:00 3,4 0,6 14 8 25 14 Z 1032,2 20
21.11.2020 02:00:00 2,5 0,0 11 6 22 12 ZZW 1033,2 20
21.11.2020 01:00:00 2,3 -0,3 11 6 - - Z 1033,5 20
21.11.2020 00:00:00 1,6 -0,5 7 4 14 8 Z 1034,2 20
20.11.2020 23:00:00 0,8 -1,1 7 4 11 6 Z 1034,5 20
20.11.2020 22:00:00 2,2 -0,5 7 4 - - Z 1034,7 20
20.11.2020 21:00:00 2,3 -0,2 4 2 7 4 N 1035,0 20
20.11.2020 20:00:00 2,9 -0,2 4 2 11 6 N 1035,2 20
20.11.2020 19:00:00 2,7 -0,4 4 2 - - N 1035,2 20
20.11.2020 18:00:00 4,1 0,0 7 4 11 6 ZZW 1035,2 20
20.11.2020 17:00:00 5,3 0,2 4 2 14 8 N 1035,2 20
20.11.2020 16:00:00 6,3 0,7 4 2 - - N 1035,0 20
20.11.2020 15:00:00 7,1 1,5 4 2 14 8 N 1034,9 20
20.11.2020 14:00:00 7,8 1,4 11 6 18 10 ZW 1035,2 20
20.11.2020 13:00:00 7,6 3,2 7 4 - - ZW 1035,5 20

tt = temperatuur
td = dauwpunt
ff = windsnelheid
fx = windstoten
dd = windrichting
ppp = luchtdruk
vv = zicht

Weerstations in de omgeving